Regional Weather Roundup
Issued by NWS

Home | Current Version | Previous Version | Graphics & Text | Print | Product List | Glossary On
Versions: 1 2 3 4 5 6 7 8 9 10 11 12 13 14 15 16 17 18 19 20 21 22 23 24 25 26 27 28 29 30 31 32 33 34 35 36 37 38 39 40 41 42 43 44 45 46 47 48 49 50
000
ASUS43 KFSD 301102
RWRSD

WEATHER ROUNDUP FOR SOUTH DAKOTA
NATIONAL WEATHER SERVICE SIOUX FALLS SD
600 AM CDT TUE SEP 30 2014

NOTE: "FAIR" INDICATES FEW OR NO CLOUDS BELOW 12,000 FEET WITH NO
SIGNIFICANT WEATHER AND/OR OBSTRUCTIONS TO VISIBILITY.


SDZ001>005-009-010-012>017-301200-
NORTHWEST AND NORTH CENTRAL SOUTH DAKOTA

CITY           SKY/WX    TMP DP  RH WIND       PRES   REMARKS
BUFFALO          N/A     52  51  97 N14       29.58F
FAITH            N/A     57  56  96 E21G31    29.62F
MOBRIDGE       CLOUDY    55  50  83 SE15G22   29.72S
$$

SDZ012>016-024>037-041>051-057-063-072>074-301200-
SOUTHWEST AND SOUTH CENTRAL SOUTH DAKOTA

CITY           SKY/WX    TMP DP  RH WIND       PRES   REMARKS
RAPID CTY ARPT LGT RAIN  53  52  96 N21G28    29.53F
PIERRE         LGT RAIN  58  56  93 SE25G33   29.65F
CUSTER         LGT RAIN  50  48  93 N8        29.55F
ELLSWORTH AFB  LGT RAIN  53  53 100 N16       29.54F
PHILIP         MOCLDY    60  57  89 E18G24    29.54F
PINE RIDGE     LGT RAIN  53  50  89 S10G20    29.39F
WINNER         FAIR      62  59  90 SE21      29.66F
$$

SDZ004>011-016>023-039-040-301200-
NORTHEAST SOUTH DAKOTA

CITY           SKY/WX    TMP DP  RH WIND       PRES   REMARKS
ABERDEEN       CLOUDY    54  49  83 E13       29.82F
WATERTOWN      CLOUDY    48  46  93 E10G20    29.89F
SISSETON         N/A     46  44  93 SE13G20   29.93F
$$

SDZ017-020-022-023-036>040-048>070-301200-
SOUTHEAST SOUTH DAKOTA

CITY           SKY/WX    TMP DP  RH WIND       PRES   REMARKS
SIOUX FALLS    MOCLDY    52  49  89 E14       29.89F
HURON          MOCLDY    54  50  86 SE13G22   29.80F
CHAMBERLAIN    LGT RAIN  58  57  95 E16G24    29.71F
MITCHELL       MOCLDY    55  51  86 SE20G25   29.80F
YANKTON        CLOUDY    57  54  88 E13G20    29.84F
$$

ABBREVIATIONS USED IN REMARKS
   TC - TEMPERATURE IN CELSIUS
  WCI - WIND CHILL INDEX
   HX - HEAT INDEX
  VSB - VISIBILITY




USA.gov is the U.S. government's official web portal to all federal, state and local government web resources and services.